Flag for U.S.A. Weather past 2 weeks in Bristol, Tennessee, U.S.A.

Now
51 °F

Mostly cloudy.


Feels Like: 49 °F
Forecast: 46 / 60 °F
Wind: 5 mph from West

Location: Abingdon-Southwest Abingdon

Current Time: Apr 21, 2015 at 2:40:57 AM

Latest Report: Apr 21, 2015 at 2:15 AM


Visibility: 10 mi

Pressure: 29.86 "Hg

Humidity: 81%

Dew point: 45 °F

Location of BristolLocation

Historic Weather in Bristol — Graph

°F

Bristol temperature yesterday

Maximum temperature yesterday: 73 °F (at 3:55 PM)
Minimum temperature yesterday: 56 °F (at 11:15 PM)
Average temperature yesterday: 63 °F

Past Weeks' High & Low Weather Summary

 TemperatureHumidityPressure
High83 °F (Apr 9, 4:35 PM)100% (Apr 7, 6:10 AM)30.31 "Hg (Apr 7, 6:10 AM)
Low43 °F (Apr 11, 6:55 AM)16% (Apr 11, 7:15 PM)29.62 "Hg (Apr 20, 4:35 PM)
Average63 °F72%30.10 "Hg
* Reported Apr 6 1:15 AM — Apr 21 1:15 AM, Bristol, Weather by CustomWeather, © 2015

Note: Actual official high and low records may vary slightly from our data, if they occured in-between our weather recording intervals... More about our weather records

Advertising

Bristol weather history for previous 24 hours

 ConditionsComfort  
Time TempWeatherWind HumidityBarometerVisibility
1:15 AM
Tue, Apr 21
52 °FMostly cloudy.No wind68%29.85 "Hg10 mi
12:55 AM53 °FMostly cloudy.3 mph66%29.85 "Hg10 mi
12:35 AM53 °FMostly cloudy.No wind66%29.85 "Hg10 mi
12:15 AM53 °FMostly cloudy.7 mph70%29.83 "Hg10 mi
11:15 PM
Mon, Apr 20
56 °FLight rain. Overcast.10 mph69%29.80 "Hg10 mi
10:55 PM57 °FRain. Mostly cloudy.14 mph68%29.78 "Hg10 mi
10:35 PM59 °FLight rain. Overcast.9 mph66%29.76 "Hg10 mi
10:15 PM59 °FOvercast.7 mph62%29.76 "Hg10 mi
10:00 PM60 °FOvercast.8 mph61%29.75 "Hg10 mi
9:15 PM61 °FPassing clouds.13 mph54%29.71 "Hg10 mi
8:55 PM62 °FScattered clouds.12 mph56%29.70 "Hg10 mi
8:35 PM64 °FScattered clouds.18 mph49%29.69 "Hg10 mi
8:15 PM66 °FScattered clouds.14 mph41%29.66 "Hg10 mi
7:55 PM66 °FPartly sunny.13 mph40%29.66 "Hg10 mi
7:15 PM68 °FBroken clouds.24 mph39%29.64 "Hg10 mi
6:55 PM68 °FScattered clouds.20 mph43%29.63 "Hg10 mi
6:15 PM70 °FSunny.12 mph47%29.62 "Hg10 mi
5:55 PM71 °FScattered clouds.17 mph45%29.62 "Hg10 mi
5:15 PM72 °FScattered clouds.20 mph44%29.62 "Hg10 mi
4:55 PM72 °FScattered clouds.16 mph46%29.62 "Hg10 mi
4:35 PM73 °FScattered clouds.12 mph48%29.62 "Hg10 mi
4:15 PM72 °FBroken clouds.13 mph48%29.63 "Hg10 mi
3:55 PM73 °FScattered clouds.9 mph49%29.63 "Hg10 mi
3:35 PM72 °FSunny.15 mph49%29.64 "Hg10 mi
3:15 PM72 °FSunny.10 mph51%29.65 "Hg10 mi
2:55 PM71 °FScattered clouds.13 mph53%29.66 "Hg10 mi
2:35 PM72 °FBroken clouds.14 mph51%29.67 "Hg10 mi
2:15 PM72 °FScattered clouds.14 mph46%29.68 "Hg10 mi
1:55 PM72 °FScattered clouds.14 mph49%29.68 "Hg10 mi
1:35 PM72 °FScattered clouds.22 mph46%29.69 "Hg10 mi
1:15 PM71 °FBroken clouds.16 mph54%29.69 "Hg10 mi
12:55 PM70 °FScattered clouds.12 mph58%29.69 "Hg10 mi
12:35 PM69 °FSunny.14 mph60%29.69 "Hg10 mi
12:15 PM68 °FScattered clouds.17 mph61%29.69 "Hg10 mi
11:55 AM67 °FScattered clouds.14 mph62%29.70 "Hg10 mi
11:35 AM67 °FScattered clouds.10 mph61%29.70 "Hg10 mi
11:15 AM68 °FSunny.10 mph66%29.69 "Hg10 mi
10:55 AM65 °FSunny.8 mph73%29.69 "Hg10 mi
10:35 AM64 °FSunny.8 mph77%29.69 "Hg10 mi
10:15 AM61 °FSunny.3 mph85%29.69 "Hg10 mi
9:55 AM60 °FSunny.5 mph87%29.69 "Hg10 mi
9:35 AM58 °FSunny.3 mph90%29.69 "Hg10 mi
9:15 AM58 °FSunny.7 mph91%29.70 "Hg10 mi
8:55 AM58 °FScattered clouds.9 mph94%29.72 "Hg10 mi
8:35 AM58 °FLight rain. Cloudy.10 mph92%29.73 "Hg10 mi
8:15 AM58 °FLight rain. More clouds than sun.9 mph100%29.74 "Hg10 mi
7:55 AM58 °FPartly sunny.No wind100%29.69 "Hg10 mi
7:35 AM57 °FClear.No wind100%29.69 "Hg7 mi
7:15 AM57 °FClear.No wind100%29.69 "Hg10 mi
6:55 AM57 °FPassing clouds.No wind100%29.70 "Hg10 mi
6:35 AM58 °FMostly cloudy.No wind99%29.71 "Hg10 mi
6:15 AM58 °FPartly cloudy.No wind99%29.72 "Hg10 mi
5:55 AM58 °FPartly cloudy.3 mph98%29.72 "Hg10 mi
5:35 AM58 °FMostly cloudy.5 mph98%29.73 "Hg10 mi
5:15 AM58 °FMostly cloudy.6 mph98%29.72 "Hg10 mi
4:55 AM58 °FOvercast.7 mph99%29.72 "Hg10 mi
4:35 AM59 °FLow clouds.7 mph98%29.72 "Hg10 mi
4:15 AM58 °FOvercast.6 mph98%29.71 "Hg10 mi
3:55 AM58 °FOvercast.5 mph98%29.71 "Hg10 mi
3:35 AM58 °FOvercast.3 mph98%29.72 "Hg10 mi
3:15 AM58 °FOvercast.No wind98%29.72 "Hg10 mi
2:55 AM58 °FOvercast.No wind99%29.73 "Hg10 mi
2:15 AM57 °FOvercast.3 mph98%29.73 "Hg10 mi
Weather by CustomWeather, © 2015

See weather overviewHow to use our weather pages